• In United Kingdom
  • List of Countries
  • For 7 days
  • Water Temperature
  • Satellite Maps
  • Weather Map
  • Weather Widgets
  • user-avatar
    Login

    Hourly Weather Glowienka

    Today, 24 October, Wednesday

    Time Temperature Precipitation Wind Pressure Humidity
    00:00 +7°C° 0.2 mm 9 mps 740 mmHg 73%
    01:00 +7°C° 0.2 mm 9 mps 740 mmHg 72%
    02:00 +6°C° 0.1 mm 9 mps 741 mmHg 71%
    03:00 +6°C° 0.1 mm 9 mps 741 mmHg 69%
    04:00 +5°C° 0.1 mm 9 mps 741 mmHg 67%
    05:00 +5°C° 0.1 mm 8 mps 742 mmHg 67%
    06:00 +4°C° 0.1 mm 8 mps 743 mmHg 67%
    07:00 +4°C° 0.1 mm 7 mps 743 mmHg 66%
    08:00 +5°C° 0 mm 8 mps 744 mmHg 59%
    09:00 +5°C° 0 mm 9 mps 745 mmHg 52%
    10:00 +6°C° 0 mm 10 mps 745 mmHg 45%
    11:00 +7°C° 0 mm 10 mps 746 mmHg 43%
    12:00 +7°C° 0 mm 10 mps 747 mmHg 42%
    13:00 +7°C° 0 mm 10 mps 747 mmHg 40%
    14:00 +7°C° 0 mm 9 mps 748 mmHg 43%
    15:00 +7°C° 0 mm 8 mps 748 mmHg 45%
    16:00 +6°C° 0 mm 7 mps 749 mmHg 47%
    17:00 +5°C° 0 mm 6 mps 749 mmHg 50%
    18:00 +5°C° 0 mm 6 mps 750 mmHg 54%
    19:00 +5°C° 0 mm 5 mps 750 mmHg 57%
    20:00 +5°C° 0 mm 5 mps 750 mmHg 60%
    21:00 +5°C° 0 mm 5 mps 751 mmHg 63%
    22:00 +3°C° 0 mm 5 mps 751 mmHg 67%
    23:00 +3°C° 0 mm 5 mps 751 mmHg 69%

    Tomorrow, 25 October, Thursday

    Time Temperature Precipitation Wind Pressure Humidity
    00:00 +3°C° 0 mm 5 mps 750 mmHg 71%
    01:00 +3°C° 0 mm 5 mps 750 mmHg 73%
    02:00 +3°C° 0.2 mm 5 mps 749 mmHg 76%
    03:00 +3°C° 0.2 mm 5 mps 749 mmHg 79%
    04:00 +5°C° 0.2 mm 5 mps 748 mmHg 83%
    05:00 +5°C° 0.8 mm 6 mps 747 mmHg 85%
    06:00 +6°C° 0.8 mm 7 mps 746 mmHg 87%
    07:00 +8°C° 0.8 mm 7 mps 745 mmHg 90%
    08:00 +9°C° 0.3 mm 8 mps 745 mmHg 88%
    09:00 +8°C° 0.3 mm 9 mps 745 mmHg 86%
    10:00 +10°C° 0.3 mm 9 mps 744 mmHg 84%
    11:00 +10°C° 0.2 mm 9 mps 744 mmHg 82%
    12:00 +9°C° 0.2 mm 10 mps 744 mmHg 80%
    13:00 +9°C° 0.2 mm 10 mps 744 mmHg 78%
    14:00 +9°C° 0.1 mm 10 mps 744 mmHg 75%
    15:00 +8°C° 0.1 mm 9 mps 745 mmHg 73%
    16:00 +8°C° 0.1 mm 9 mps 745 mmHg 70%
    17:00 +7°C° 0 mm 8 mps 745 mmHg 72%
    18:00 +8°C° 0 mm 7 mps 746 mmHg 74%
    19:00 +6°C° 0 mm 7 mps 746 mmHg 76%
    20:00 +7°C° 0 mm 6 mps 746 mmHg 77%
    21:00 +5°C° 0 mm 6 mps 747 mmHg 79%
    22:00 +5°C° 0 mm 6 mps 747 mmHg 80%
    23:00 +5°C° 0 mm 6 mps 747 mmHg 81%

    Day after tomorrow, 26 October, Friday

    Time Temperature Precipitation Wind Pressure Humidity
    00:00 +5°C° 0 mm 6 mps 747 mmHg 83%
    01:00 +6°C° 0 mm 5 mps 747 mmHg 84%
    02:00 +6°C° 0 mm 5 mps 747 mmHg 84%
    03:00 +6°C° 0 mm 5 mps 747 mmHg 84%
    04:00 +5°C° 0 mm 5 mps 747 mmHg 85%
    05:00 +5°C° 0 mm 5 mps 746 mmHg 85%
    06:00 +5°C° 0 mm 5 mps 746 mmHg 85%
    07:00 +5°C° 0 mm 5 mps 746 mmHg 85%
    08:00 +6°C° 0 mm 5 mps 746 mmHg 81%
    09:00 +7°C° 0 mm 5 mps 746 mmHg 78%
    10:00 +8°C° 0 mm 5 mps 746 mmHg 75%
    11:00 +9°C° 0.3 mm 5 mps 745 mmHg 77%
    12:00 +9°C° 0.3 mm 6 mps 745 mmHg 79%
    13:00 +10°C° 0.3 mm 6 mps 744 mmHg 82%
    14:00 +10°C° 0.3 mm 6 mps 744 mmHg 81%
    15:00 +10°C° 0.3 mm 5 mps 743 mmHg 80%
    16:00 +10°C° 0.3 mm 5 mps 742 mmHg 79%
    17:00 +10°C° 0.1 mm 6 mps 742 mmHg 79%
    18:00 +10°C° 0.1 mm 6 mps 742 mmHg 79%
    19:00 +9°C° 0.1 mm 7 mps 741 mmHg 79%
    20:00 +9°C° 0.1 mm 7 mps 741 mmHg 78%
    21:00 +9°C° 0.1 mm 8 mps 741 mmHg 78%
    22:00 +7°C° 0.1 mm 8 mps 741 mmHg 77%
    23:00 +7°C° 0 mm 8 mps 741 mmHg 76%

    27 October, Saturday

    Time Temperature Precipitation Wind Pressure Humidity
    00:00 +6°C° 0 mm 8 mps 741 mmHg 74%
    01:00 +5°C° 0 mm 8 mps 741 mmHg 73%
    02:00 +5°C° 0 mm 8 mps 742 mmHg 73%
    03:00 +5°C° 0 mm 8 mps 742 mmHg 73%
    04:00 +5°C° 0 mm 9 mps 742 mmHg 74%
    05:00 +5°C° 0 mm 8 mps 743 mmHg 74%
    06:00 +4°C° 0 mm 8 mps 744 mmHg 74%
    07:00 +4°C° 0 mm 7 mps 744 mmHg 75%
    08:00 +5°C° 0 mm 7 mps 745 mmHg 73%
    09:00 +5°C° 0 mm 7 mps 746 mmHg 71%
    10:00 +5°C° 0 mm 7 mps 746 mmHg 69%
    11:00 +5°C° 0 mm 6 mps 747 mmHg 67%
    12:00 +7°C° 0 mm 6 mps 747 mmHg 65%
    13:00 +7°C° 0 mm 5 mps 747 mmHg 62%
    14:00 +7°C° 0 mm 4 mps 748 mmHg 63%
    15:00 +8°C° 0 mm 3 mps 748 mmHg 64%
    16:00 +7°C° 0 mm 2 mps 748 mmHg 65%
    17:00 +7°C° 0 mm 2 mps 749 mmHg 68%
    18:00 +7°C° 0 mm 1 mps 749 mmHg 70%
    19:00 +7°C° 0 mm 1 mps 750 mmHg 72%
    20:00 +7°C° 0 mm 1 mps 750 mmHg 73%
    21:00 +6°C° 0 mm 1 mps 750 mmHg 73%
    22:00 +6°C° 0 mm 1 mps 750 mmHg 74%
    23:00 +6°C° 0 mm 1 mps 750 mmHg 74%

    28 October, Sunday

    Time Temperature Precipitation Wind Pressure Humidity
    00:00 +6°C° 0 mm 1 mps 751 mmHg 75%
    01:00 +6°C° 0 mm 1 mps 751 mmHg 76%
    02:00 +6°C° 0 mm 1 mps 751 mmHg 76%
    03:00 +5°C° 0 mm 1 mps 751 mmHg 77%
    04:00 +4°C° 0 mm 2 mps 751 mmHg 77%
    05:00 +4°C° 0 mm 2 mps 752 mmHg 78%
    06:00 +4°C° 0 mm 2 mps 752 mmHg 78%
    07:00 +4°C° 0 mm 2 mps 752 mmHg 79%
    08:00 +4°C° 0 mm 3 mps 752 mmHg 75%
    09:00 +5°C° 0 mm 3 mps 752 mmHg 71%
    10:00 +7°C° 0 mm 3 mps 753 mmHg 67%
    11:00 +7°C° 0.1 mm 3 mps 753 mmHg 67%
    12:00 +6°C° 0.1 mm 4 mps 753 mmHg 66%
    13:00 +6°C° 0.1 mm 4 mps 753 mmHg 66%
    14:00 +6°C° 0.2 mm 4 mps 753 mmHg 67%
    15:00 +5°C° 0.2 mm 4 mps 753 mmHg 68%
    16:00 +5°C° 0.2 mm 4 mps 753 mmHg 70%
    17:00 +5°C° 0.1 mm 4 mps 753 mmHg 70%
    18:00 +4°C° 0.1 mm 4 mps 753 mmHg 71%
    19:00 +3°C° 0.1 mm 5 mps 754 mmHg 72%
    20:00 +3°C° 0 mm 5 mps 754 mmHg 73%
    21:00 +3°C° 0 mm 5 mps 754 mmHg 73%
    22:00 +3°C° 0 mm 5 mps 754 mmHg 74%
    23:00 +2°C° 0 mm 5 mps 753 mmHg 75%

    29 October, Monday

    Time Temperature Precipitation Wind Pressure Humidity
    00:00 +2°C° 0 mm 6 mps 753 mmHg 76%
    01:00 +2°C° 0 mm 6 mps 753 mmHg 77%
    02:00 +2°C° 0.1 mm 6 mps 753 mmHg 76%
    03:00 +2°C° 0.1 mm 7 mps 753 mmHg 76%
    04:00 +2°C° 0.1 mm 7 mps 752 mmHg 76%
    05:00 +2°C° 0.3 mm 7 mps 752 mmHg 76%
    06:00 +2°C° 0.3 mm 7 mps 752 mmHg 76%
    07:00 +2°C° 0.3 mm 7 mps 752 mmHg 76%
    08:00 +1°C° 0.4 mm 8 mps 752 mmHg 76%
    09:00 +2°C° 0.4 mm 8 mps 752 mmHg 75%
    10:00 +2°C° 0.4 mm 8 mps 752 mmHg 74%
    11:00 +2°C° 0.4 mm 8 mps 752 mmHg 74%
    12:00 +2°C° 0.4 mm 8 mps 752 mmHg 73%
    13:00 +2°C° 0.4 mm 8 mps 752 mmHg 73%
    14:00 +2°C° 0.3 mm 8 mps 752 mmHg 73%
    15:00 +2°C° 0.3 mm 8 mps 752 mmHg 74%
    16:00 +2°C° 0.3 mm 8 mps 752 mmHg 74%
    17:00 +1°C° 0.1 mm 8 mps 752 mmHg 74%
    18:00 +1°C° 0.1 mm 8 mps 752 mmHg 75%
    19:00 +1°C° 0.1 mm 8 mps 753 mmHg 75%
    20:00 +1°C° 0 mm 8 mps 753 mmHg 75%
    21:00 +1°C° 0 mm 8 mps 753 mmHg 75%
    22:00 0°C° 0 mm 8 mps 754 mmHg 75%
    23:00 0°C° 0 mm 8 mps 754 mmHg 75%

    30 October, Tuesday

    Time Temperature Precipitation Wind Pressure Humidity
    00:00 0°C° 0 mm 8 mps 754 mmHg 76%
    01:00 0°C° 0 mm 8 mps 754 mmHg 76%
    02:00 0°C° 0 mm 8 mps 753 mmHg 76%
    03:00 -1°C° 0 mm 8 mps 753 mmHg 76%
    04:00 -1°C° 0 mm 8 mps 753 mmHg 76%
    05:00 -1°C° 0 mm 9 mps 753 mmHg 76%
    06:00 -1°C° 0 mm 9 mps 753 mmHg 76%
    07:00 -1°C° 0 mm 9 mps 753 mmHg 76%
    08:00 -1°C° 0 mm 9 mps 753 mmHg 75%
    09:00 -1°C° 0 mm 9 mps 753 mmHg 75%
    10:00 -1°C° 0 mm 9 mps 753 mmHg 75%
    11:00 0°C° 0.1 mm 9 mps 753 mmHg 75%
    12:00 0°C° 0.1 mm 10 mps 752 mmHg 75%
    13:00 0°C° 0.1 mm 10 mps 752 mmHg 76%
    14:00 0°C° 0.3 mm 10 mps 752 mmHg 76%
    15:00 0°C° 0.3 mm 10 mps 751 mmHg 77%
    16:00 0°C° 0.3 mm 10 mps 751 mmHg 77%
    17:00 0°C° 0.2 mm 10 mps 751 mmHg 78%
    18:00 0°C° 0.2 mm 10 mps 751 mmHg 78%
    19:00 0°C° 0.2 mm 10 mps 750 mmHg 79%
    20:00 0°C° 0.1 mm 10 mps 750 mmHg 79%
    21:00 -1°C° 0.1 mm 11 mps 749 mmHg 80%
    22:00 -2°C° 0.1 mm 11 mps 749 mmHg 80%
    23:00 -2°C° 1.2 mm 11 mps 748 mmHg 81%
    Show more